NATIONAL KEY DEER NWR FL US current weather conditions

sailwx.info

Wind from 063 at 6 knots gusting 11

Air temperature 27.8° C
Dewpoint 25.6° C

Last reported at 2015-Aug-29 06:38 UTC.
Time now 2015-Aug-29 07:20 UTC

Location: N 24°43' W 081°23'.
View on Google Maps.

See reports from other nearby stations

  
Tides and Currents Weather Stations Pressure Air Temp Water Temp Dewpoint Dewpoint Depression Visibility Wind Speed Wind Dir Waves Ship Positions
date/time (UTC)wind fromknots sea level pressurealtimeterstation pressurevisibilityair tempwater tempwave heightnotes
2015-Aug-29 06:38 063 6 gusting 11 27.8
2015-Aug-29 05:38 047 6 gusting 11 26.7
2015-Aug-29 04:38 104 7 gusting 15 25.6
2015-Aug-29 03:38 027 6 gusting 19 25.0
2015-Aug-29 02:38 041 7 gusting 13 29.4
2015-Aug-29 01:38 070 5 gusting 8 29.4
2015-Aug-29 00:38 076 3 gusting 6 29.4
2015-Aug-28 23:38 104 2 gusting 7 30.0
2015-Aug-28 22:38 102 3 gusting 6 31.1
2015-Aug-28 21:38 101 3 gusting 11 30.0
2015-Aug-28 20:38 086 6 gusting 9 32.8
2015-Aug-28 19:38 049 5 gusting 9 33.3
2015-Aug-28 18:38 092 6 gusting 8 33.3
2015-Aug-28 17:38 072 5 gusting 8 33.3
2015-Aug-28 16:38 084 5 gusting 9 33.3
2015-Aug-28 15:38 183 4 gusting 8 32.8
2015-Aug-28 14:38 162 2 gusting 5 31.7
2015-Aug-28 13:38 172 1 gusting 4 30.0
2015-Aug-28 12:38 194 1 gusting 4 30.6
2015-Aug-28 11:38 009 0 gusting 1 24.4
2015-Aug-28 10:38 25.6
2015-Aug-28 09:38 156 4 gusting 6 26.1
2015-Aug-28 08:38 182 0 gusting 3 25.0
2015-Aug-28 07:38 25.0
2015-Aug-28 06:38 25.6
2015-Aug-28 05:38 26.7
2015-Aug-28 04:38 164 5 gusting 11 27.8
2015-Aug-28 03:38 163 4 gusting 7 28.3
2015-Aug-28 02:38 164 2 gusting 5 27.8
2015-Aug-28 01:38 144 0 gusting 3 26.7
2015-Aug-28 00:38 161 0 gusting 3 26.7
2015-Aug-27 23:38 28.9
2015-Aug-27 22:38 067 0 gusting 6 30.6
2015-Aug-27 21:38 246 3 gusting 6 28.9
2015-Aug-27 20:38 252 1 gusting 6 30.0
2015-Aug-27 19:38 227 3 gusting 6 29.4
2015-Aug-27 18:38 238 0 gusting 4 30.6
2015-Aug-27 17:38 099 1 gusting 6 32.2
2015-Aug-27 16:38 071 2 gusting 4 31.7
2015-Aug-27 15:38 046 3 gusting 6 29.4
2015-Aug-27 14:38 115 2 gusting 12 26.1
2015-Aug-27 13:38 053 8 gusting 14 25.6
2015-Aug-27 12:38 314 5 gusting 22 23.3
2015-Aug-27 11:38 297 1 gusting 9 26.1
2015-Aug-27 10:38 223 2 gusting 7 27.2
2015-Aug-27 09:38 184 1 gusting 3 26.1
2015-Aug-27 08:38 197 0 gusting 2 26.1
2015-Aug-27 07:38 25.6